COSMOS 1275 DEB, 12703

Orbit data source: Space-Track

COSMOS 1275 DEB, 12703 is space debris in LEO originally from a launch on Thu, 04 Jun 1981 UTC launched from the Plesetsk Missile And Space Complex (PKMTR). Debris objects in space refer to the collection of defunct objects orbiting the Earth. Examples of debris include non-operational satellites, rocket bodies, and fragments generated from explosions, collisions, or faulty payload assembly.

Loading next visibility...
Identifier
12703, 1981-053AX
Orbit
LEO
Country
Flag of CISCIS
Related business
Manufacturer
Unknown
Mission
Spacecraft
Bus & Motor
Unknown
Mass
Unknown
Launch date (UTC)
1981-06-04 (45 years ago)
Launch vehicle
Unknown
Launch site
Plesetsk Missile And Space Complex (PKMTR)
Object type
Payload
Rocket body
Debris
Shape & HBR
Unknown shape, 0.1 m
Radar Cross Section
Small (<0.1 m²)

Expand to show TLE details & history
Last TLE update: 10 hours ago

TLE from 10 hours ago
0 COSMOS 1275 DEB
1 12703U 81053AX  26124.06352113  .00001111  00000-0  60272-3 0  9990
2 12703  82.9676 231.5140 0016432 115.7734 244.5141 14.11536945280889
Epoch: 2026-05-04T01:31Z
TLE epoch observation values (Epoch: 2026-05-04T01:31:28.225Z)
Latitude
0.00002°
Longitude
-13.3117°
Altitude
862.199 km
Speed
7.419 km/s
True Right ascension
15h 26m 03s
True Declination
0° 00' 00"
Sunlit
Object was in full shadow at epoch
Visualization orbit readout
Latitude
Unknown
Longitude
Unknown
Altitude
Unknown
Speed
Unknown
Apparent Right ascension
Unknown
Apparent Declination
Unknown
Sunlit
N/A
Visualization observer readout
Local Sidereal Time
19:04:19
Azimuth
Unknown
Elevation
Unknown
Doppler factor
Unknown
Orbital elements
Apogee altitude
863.094 km
Perigee altitude
839.335 km
Semi-major axis
7,229.351 km
Eccentricity
0.00164
Inclination
82.9676°
RAAN
231.514°
Arg. of periapsis
115.7734°
True anomaly
244.34428°
Mean anomaly
244.5141°
Eccentric anomaly
244.42917°
Mean motion
3.53097 °/min
Orbital period
101.95 mins
BSTAR
0.00060272
Loading maneuver chart data...
Computing Atmospheric mass density...
Loading historical data...
Loading historical data...
Loading historical data...
Loading historical data...
Loading historical data...
Loading historical data...
Loading historical data...

Documentation

Showing up to 5 results
|